Year,Month,Day,Hour,Minute,Value (Times are PST for temperature in C)
2010,06,29,00,00,12.30
2010,06,29,00,01,12.30
2010,06,29,00,02,12.30
2010,06,29,00,03,12.30
2010,06,29,00,04,12.30
2010,06,29,00,05,12.30
2010,06,29,00,06,12.30
2010,06,29,00,07,12.30
2010,06,29,00,08,12.30
2010,06,29,00,09,12.30
2010,06,29,00,10,12.30
2010,06,29,00,11,12.30
2010,06,29,00,12,12.30
2010,06,29,00,13,12.20
2010,06,29,00,14,12.20
2010,06,29,00,15,12.20
2010,06,29,00,16,12.20
2010,06,29,00,17,12.20
2010,06,29,00,18,12.20
2010,06,29,00,19,12.10
2010,06,29,00,20,12.10
2010,06,29,00,21,12.10
2010,06,29,00,22,12.10
2010,06,29,00,23,12.10
2010,06,29,00,24,12.10
2010,06,29,00,25,12.00
2010,06,29,00,26,12.00
2010,06,29,00,27,12.00
2010,06,29,00,28,12.00
2010,06,29,00,29,12.00
2010,06,29,00,30,12.00
2010,06,29,00,31,11.90
2010,06,29,00,32,11.90
2010,06,29,00,33,11.90
2010,06,29,00,34,11.90
2010,06,29,00,35,11.90
2010,06,29,00,36,11.90
2010,06,29,00,37,11.90
2010,06,29,00,38,11.90
2010,06,29,00,39,11.80
2010,06,29,00,40,11.80
2010,06,29,00,41,11.80
2010,06,29,00,42,11.80
2010,06,29,00,43,11.80
2010,06,29,00,44,11.80
2010,06,29,00,45,11.80
2010,06,29,00,46,11.80
2010,06,29,00,47,11.80
2010,06,29,00,48,11.80
2010,06,29,00,49,11.80
2010,06,29,00,50,11.80
2010,06,29,00,51,11.80
2010,06,29,00,52,11.80
2010,06,29,00,53,11.80
2010,06,29,00,54,11.80
2010,06,29,00,55,11.80
2010,06,29,00,56,11.80
2010,06,29,00,57,11.80
2010,06,29,00,58,11.80
2010,06,29,00,59,11.80
2010,06,29,01,00,11.80
2010,06,29,01,01,11.80
2010,06,29,01,02,11.80
2010,06,29,01,03,11.80
2010,06,29,01,04,11.80
2010,06,29,01,05,11.80
2010,06,29,01,06,11.80
2010,06,29,01,07,11.80
2010,06,29,01,08,11.80
2010,06,29,01,09,11.80
2010,06,29,01,10,11.80
2010,06,29,01,11,11.80
2010,06,29,01,12,11.80
2010,06,29,01,13,11.80
2010,06,29,01,14,11.80
2010,06,29,01,15,11.80
2010,06,29,01,16,11.80
2010,06,29,01,17,11.80
2010,06,29,01,18,11.80
2010,06,29,01,19,11.70
2010,06,29,01,20,11.70
2010,06,29,01,21,11.70
2010,06,29,01,22,11.70
2010,06,29,01,23,11.70
2010,06,29,01,24,11.70
2010,06,29,01,25,11.70
2010,06,29,01,26,11.70
2010,06,29,01,27,11.60
2010,06,29,01,28,11.60
2010,06,29,01,29,11.60
2010,06,29,01,30,11.60
2010,06,29,01,31,11.60
2010,06,29,01,32,11.60
2010,06,29,01,33,11.60
2010,06,29,01,34,11.60
2010,06,29,01,35,11.60
2010,06,29,01,36,11.60
2010,06,29,01,37,11.60
2010,06,29,01,38,11.60
2010,06,29,01,39,11.60
2010,06,29,01,40,11.60
2010,06,29,01,41,11.60
2010,06,29,01,42,11.60
2010,06,29,01,43,11.60
2010,06,29,01,44,11.60
2010,06,29,01,45,11.60
2010,06,29,01,46,11.60
2010,06,29,01,47,11.50
2010,06,29,01,48,11.40
2010,06,29,01,49,11.40
2010,06,29,01,50,11.40
2010,06,29,01,51,11.40
2010,06,29,01,52,11.40
2010,06,29,01,53,11.40
2010,06,29,01,54,11.40
2010,06,29,01,55,11.40
2010,06,29,01,56,11.40
2010,06,29,01,57,11.40
2010,06,29,01,58,11.40
2010,06,29,01,59,11.40
2010,06,29,02,00,11.30
2010,06,29,02,01,11.30
2010,06,29,02,02,11.30
2010,06,29,02,03,11.30
2010,06,29,02,04,11.30
2010,06,29,02,05,11.30
2010,06,29,02,06,11.40
2010,06,29,02,07,11.40
2010,06,29,02,08,11.30
2010,06,29,02,09,11.30
2010,06,29,02,10,11.30
2010,06,29,02,11,11.30
2010,06,29,02,12,11.30
2010,06,29,02,13,11.30
2010,06,29,02,14,11.30
2010,06,29,02,15,11.30
2010,06,29,02,16,11.30
2010,06,29,02,17,11.30
2010,06,29,02,18,11.30
2010,06,29,02,19,11.30
2010,06,29,02,20,11.30
2010,06,29,02,21,11.30
2010,06,29,02,22,11.30
2010,06,29,02,23,11.20
2010,06,29,02,24,11.20
2010,06,29,02,25,11.20
2010,06,29,02,26,11.20
2010,06,29,02,27,11.20
2010,06,29,02,28,11.20
2010,06,29,02,29,11.20
2010,06,29,02,30,11.20
2010,06,29,02,31,11.10
2010,06,29,02,32,11.10
2010,06,29,02,33,11.10
2010,06,29,02,34,11.10
2010,06,29,02,35,11.10
2010,06,29,02,36,11.10
2010,06,29,02,37,11.10
2010,06,29,02,38,11.00
2010,06,29,02,39,10.90
2010,06,29,02,40,10.90
2010,06,29,02,41,10.90
2010,06,29,02,42,10.90
2010,06,29,02,43,10.90
2010,06,29,02,44,10.90
2010,06,29,02,45,10.90
2010,06,29,02,46,10.90
2010,06,29,02,47,10.90
2010,06,29,02,48,10.80
2010,06,29,02,49,10.80
2010,06,29,02,50,10.80
2010,06,29,02,51,10.80
2010,06,29,02,52,10.70
2010,06,29,02,53,10.70
2010,06,29,02,54,10.70
2010,06,29,02,55,10.70
2010,06,29,02,56,10.70
2010,06,29,02,57,10.70
2010,06,29,02,58,10.60
2010,06,29,02,59,10.60
2010,06,29,03,00,10.60
2010,06,29,03,01,10.60
2010,06,29,03,02,10.60
2010,06,29,03,03,10.60
2010,06,29,03,04,10.50
2010,06,29,03,05,10.40
2010,06,29,03,06,10.40
2010,06,29,03,07,10.40
2010,06,29,03,08,10.40
2010,06,29,03,09,10.40
2010,06,29,03,10,10.30
2010,06,29,03,11,10.30
2010,06,29,03,12,10.20
2010,06,29,03,13,10.20
2010,06,29,03,14,10.10
2010,06,29,03,15,10.10
2010,06,29,03,16,10.00
2010,06,29,03,17,9.90
2010,06,29,03,18,9.90
2010,06,29,03,19,9.90
2010,06,29,03,20,9.90
2010,06,29,03,21,9.80
2010,06,29,03,22,9.80
2010,06,29,03,23,9.80
2010,06,29,03,24,9.80
2010,06,29,03,25,9.70
2010,06,29,03,26,9.70
2010,06,29,03,27,9.70
2010,06,29,03,28,9.70
2010,06,29,03,29,9.70
2010,06,29,03,30,9.60
2010,06,29,03,31,9.60
2010,06,29,03,32,9.60
2010,06,29,03,33,9.50
2010,06,29,03,34,9.50
2010,06,29,03,35,9.40
2010,06,29,03,36,9.40
2010,06,29,03,37,9.30
2010,06,29,03,38,9.30
2010,06,29,03,39,9.20
2010,06,29,03,40,9.20
2010,06,29,03,41,9.20
2010,06,29,03,42,9.20
2010,06,29,03,43,9.10
2010,06,29,03,44,9.00
2010,06,29,03,45,9.00
2010,06,29,03,46,9.00
2010,06,29,03,47,8.90
2010,06,29,03,48,8.90
2010,06,29,03,49,8.80
2010,06,29,03,50,8.80
2010,06,29,03,51,8.70
2010,06,29,03,52,8.70
2010,06,29,03,53,8.70
2010,06,29,03,54,8.70
2010,06,29,03,55,8.70
2010,06,29,03,56,8.70
2010,06,29,03,57,8.60
2010,06,29,03,58,8.60
2010,06,29,03,59,8.60
2010,06,29,04,00,8.50
2010,06,29,04,01,8.50
2010,06,29,04,02,8.50
2010,06,29,04,03,8.40
2010,06,29,04,04,8.40
2010,06,29,04,05,8.40
2010,06,29,04,06,8.40
2010,06,29,04,07,8.30
2010,06,29,04,08,8.30
2010,06,29,04,09,8.30
2010,06,29,04,10,8.20
2010,06,29,04,11,8.20
2010,06,29,04,12,8.20
2010,06,29,04,13,8.20
2010,06,29,04,14,8.20
2010,06,29,04,15,8.20
2010,06,29,04,16,8.20
2010,06,29,04,17,8.20
2010,06,29,04,18,8.10
2010,06,29,04,19,8.10
2010,06,29,04,20,8.10
2010,06,29,04,21,8.10
2010,06,29,04,22,8.00
2010,06,29,04,23,8.00
2010,06,29,04,24,8.00
2010,06,29,04,25,7.90
2010,06,29,04,26,7.90
2010,06,29,04,27,7.90
2010,06,29,04,28,7.80
2010,06,29,04,29,7.80
2010,06,29,04,30,7.80
2010,06,29,04,31,7.80
2010,06,29,04,32,7.80
2010,06,29,04,33,7.80
2010,06,29,04,34,7.80
2010,06,29,04,35,7.70
2010,06,29,04,36,7.70
2010,06,29,04,37,7.70
2010,06,29,04,38,7.70
2010,06,29,04,39,7.70
2010,06,29,04,40,7.70
2010,06,29,04,41,7.70
2010,06,29,04,42,7.70
2010,06,29,04,43,7.70
2010,06,29,04,44,7.60
2010,06,29,04,45,7.60
2010,06,29,04,46,7.60
2010,06,29,04,47,7.60
2010,06,29,04,48,7.60
2010,06,29,04,49,7.60
2010,06,29,04,50,7.70
2010,06,29,04,51,7.70
2010,06,29,04,52,7.80
2010,06,29,04,53,7.80
2010,06,29,04,54,7.80
2010,06,29,04,55,7.90
2010,06,29,04,56,7.90
2010,06,29,04,57,8.00
2010,06,29,04,58,8.10
2010,06,29,04,59,8.20
2010,06,29,05,00,8.20
2010,06,29,05,01,8.30
2010,06,29,05,02,8.40
2010,06,29,05,03,8.50
2010,06,29,05,04,8.60
2010,06,29,05,05,8.70
2010,06,29,05,06,8.70
2010,06,29,05,07,8.80
2010,06,29,05,08,8.80
2010,06,29,05,09,8.90
2010,06,29,05,10,8.90
2010,06,29,05,11,8.90
2010,06,29,05,12,8.90
2010,06,29,05,13,8.90
2010,06,29,05,14,9.00
2010,06,29,05,15,9.00
2010,06,29,05,16,9.00
2010,06,29,05,17,9.00
2010,06,29,05,18,9.00
2010,06,29,05,19,9.00
2010,06,29,05,20,9.10
2010,06,29,05,21,9.10
2010,06,29,05,22,9.20
2010,06,29,05,23,9.20
2010,06,29,05,24,9.20
2010,06,29,05,25,9.20
2010,06,29,05,26,9.20
2010,06,29,05,27,9.20
2010,06,29,05,28,9.20
2010,06,29,05,29,9.20
2010,06,29,05,30,9.20
2010,06,29,05,31,9.20
2010,06,29,05,32,9.20
2010,06,29,05,33,9.20
2010,06,29,05,34,9.20
2010,06,29,05,35,9.20
2010,06,29,05,36,9.20
2010,06,29,05,37,9.20
2010,06,29,05,38,9.30
2010,06,29,05,39,9.30
2010,06,29,05,40,9.30
2010,06,29,05,41,9.30
2010,06,29,05,42,9.30
2010,06,29,05,43,9.30
2010,06,29,05,44,9.30
2010,06,29,05,45,9.30
2010,06,29,05,46,9.30
2010,06,29,05,47,9.30
2010,06,29,05,48,9.30
2010,06,29,05,49,9.20
2010,06,29,05,50,9.20
2010,06,29,05,51,9.20
2010,06,29,05,52,9.20
2010,06,29,05,53,9.10
2010,06,29,05,54,9.10
2010,06,29,05,55,9.00
2010,06,29,05,56,8.90
2010,06,29,05,57,8.90
2010,06,29,05,58,8.80
2010,06,29,05,59,8.70
2010,06,29,06,00,8.70
2010,06,29,06,01,8.60
2010,06,29,06,02,8.60
2010,06,29,06,03,8.50
2010,06,29,06,04,8.40
2010,06,29,06,05,8.40
2010,06,29,06,06,8.30
2010,06,29,06,07,8.30
2010,06,29,06,08,8.20
2010,06,29,06,09,8.20
2010,06,29,06,10,8.20
2010,06,29,06,11,8.20
2010,06,29,06,12,8.10
2010,06,29,06,13,8.10
2010,06,29,06,14,8.10
2010,06,29,06,15,8.10
2010,06,29,06,16,8.10
2010,06,29,06,17,8.10
2010,06,29,06,18,8.10
2010,06,29,06,19,8.10
2010,06,29,06,20,8.10
2010,06,29,06,21,8.10
2010,06,29,06,22,8.10
2010,06,29,06,23,8.10
2010,06,29,06,24,8.10
2010,06,29,06,25,8.10
2010,06,29,06,26,8.20
2010,06,29,06,27,8.20
2010,06,29,06,28,8.20
2010,06,29,06,29,8.20
2010,06,29,06,30,8.20
2010,06,29,06,31,8.30
2010,06,29,06,32,8.30
2010,06,29,06,33,8.30
2010,06,29,06,34,8.40
2010,06,29,06,35,8.40
2010,06,29,06,36,8.40
2010,06,29,06,37,8.50
2010,06,29,06,38,8.50
2010,06,29,06,39,8.50
2010,06,29,06,40,8.40
2010,06,29,06,41,8.40
2010,06,29,06,42,8.40
2010,06,29,06,43,8.30
2010,06,29,06,44,8.30
2010,06,29,06,45,8.30
2010,06,29,06,46,8.30
2010,06,29,06,47,8.30
2010,06,29,06,48,8.30
2010,06,29,06,49,8.30
2010,06,29,06,50,8.30
2010,06,29,06,51,8.30
2010,06,29,06,52,8.30
2010,06,29,06,53,8.40
2010,06,29,06,54,8.40
2010,06,29,06,55,8.40
2010,06,29,06,56,8.40
2010,06,29,06,57,8.40
2010,06,29,06,58,8.40
2010,06,29,06,59,8.40
2010,06,29,07,00,8.40
2010,06,29,07,01,8.40
2010,06,29,07,02,8.50
2010,06,29,07,03,8.50
2010,06,29,07,04,8.50
2010,06,29,07,05,8.60
2010,06,29,07,06,8.60
2010,06,29,07,07,8.70
2010,06,29,07,08,8.70
2010,06,29,07,09,8.70
2010,06,29,07,10,8.70
2010,06,29,07,11,8.80
2010,06,29,07,12,8.90
2010,06,29,07,13,8.90
2010,06,29,07,14,9.00
2010,06,29,07,15,9.00
2010,06,29,07,16,9.20
2010,06,29,07,17,9.20
2010,06,29,07,18,9.30
2010,06,29,07,19,9.50
2010,06,29,07,20,9.60
2010,06,29,07,21,9.70
2010,06,29,07,22,9.80
2010,06,29,07,23,10.00
2010,06,29,07,24,10.10
2010,06,29,07,25,10.30
2010,06,29,07,26,10.40
2010,06,29,07,27,10.50
2010,06,29,07,28,10.60
2010,06,29,07,29,10.80
2010,06,29,07,30,11.00
2010,06,29,07,31,11.10
2010,06,29,07,32,11.20
2010,06,29,07,33,11.30
2010,06,29,07,34,11.40
2010,06,29,07,35,11.60
2010,06,29,07,36,11.60
2010,06,29,07,37,11.80
2010,06,29,07,38,11.80
2010,06,29,07,39,11.90
2010,06,29,07,40,12.00
2010,06,29,07,41,12.00
2010,06,29,07,42,12.10
2010,06,29,07,43,12.10
2010,06,29,07,44,12.20
2010,06,29,07,45,12.30
2010,06,29,07,46,12.30
2010,06,29,07,47,12.30
2010,06,29,07,48,12.30
2010,06,29,07,49,12.30
2010,06,29,07,50,12.40
2010,06,29,07,51,12.40
2010,06,29,07,52,12.50
2010,06,29,07,53,12.60
2010,06,29,07,54,12.70
2010,06,29,07,55,12.70
2010,06,29,07,56,12.80
2010,06,29,07,57,12.80
2010,06,29,07,58,12.80
2010,06,29,07,59,12.80
2010,06,29,08,00,12.80
2010,06,29,08,01,12.80
2010,06,29,08,02,12.80
2010,06,29,08,03,12.90
2010,06,29,08,04,12.90
2010,06,29,08,05,12.90
2010,06,29,08,06,13.00
2010,06,29,08,07,13.10
2010,06,29,08,08,13.20
2010,06,29,08,09,13.30
2010,06,29,08,10,13.30
2010,06,29,08,11,13.30
2010,06,29,08,12,13.40
2010,06,29,08,13,13.30
2010,06,29,08,14,13.30
2010,06,29,08,15,13.30
2010,06,29,08,16,13.30
2010,06,29,08,17,13.40
2010,06,29,08,18,13.40
2010,06,29,08,19,13.40
2010,06,29,08,20,13.40
2010,06,29,08,21,13.50
2010,06,29,08,22,13.50
2010,06,29,08,23,13.50
2010,06,29,08,24,13.50
2010,06,29,08,25,13.60
2010,06,29,08,26,13.60
2010,06,29,08,27,13.60
2010,06,29,08,28,13.70
2010,06,29,08,29,13.70
2010,06,29,08,30,13.70
2010,06,29,08,31,13.70
2010,06,29,08,32,13.70
2010,06,29,08,33,13.80
2010,06,29,08,34,13.90
2010,06,29,08,35,14.00
2010,06,29,08,36,14.00
2010,06,29,08,37,14.10
2010,06,29,08,38,14.00
2010,06,29,08,39,14.00
2010,06,29,08,40,14.00
2010,06,29,08,41,14.10
2010,06,29,08,42,14.10
2010,06,29,08,43,14.10
2010,06,29,08,44,14.10
2010,06,29,08,45,14.10
2010,06,29,08,46,14.20
2010,06,29,08,47,14.20
2010,06,29,08,48,14.30
2010,06,29,08,49,14.40
2010,06,29,08,50,14.50
2010,06,29,08,51,14.50
2010,06,29,08,52,14.50
2010,06,29,08,53,14.60
2010,06,29,08,54,14.60
2010,06,29,08,55,14.70
2010,06,29,08,56,14.80
2010,06,29,08,57,14.80
2010,06,29,08,58,14.90
2010,06,29,08,59,14.90
2010,06,29,09,00,14.90
2010,06,29,09,01,14.90
2010,06,29,09,02,15.00
2010,06,29,09,03,15.00
2010,06,29,09,04,15.00
2010,06,29,09,05,15.10
2010,06,29,09,06,15.10
2010,06,29,09,07,15.20
2010,06,29,09,08,15.20
2010,06,29,09,09,15.30
2010,06,29,09,10,15.30
2010,06,29,09,11,15.20
2010,06,29,09,12,15.20
2010,06,29,09,13,15.20
2010,06,29,09,14,15.20
2010,06,29,09,15,15.30
2010,06,29,09,16,15.30
2010,06,29,09,17,15.30
2010,06,29,09,18,15.30
2010,06,29,09,19,15.30
2010,06,29,09,20,15.30
2010,06,29,09,21,15.40
2010,06,29,09,22,15.40
2010,06,29,09,23,15.40
2010,06,29,09,24,15.40
2010,06,29,09,25,15.40
2010,06,29,09,26,15.50
2010,06,29,09,27,15.50
2010,06,29,09,28,15.60
2010,06,29,09,29,15.70
2010,06,29,09,30,15.70
2010,06,29,09,31,15.70
2010,06,29,09,32,15.60
2010,06,29,09,33,15.60
2010,06,29,09,34,15.60
2010,06,29,09,35,15.50
2010,06,29,09,36,15.40
2010,06,29,09,37,15.40
2010,06,29,09,38,15.30
2010,06,29,09,39,15.40
2010,06,29,09,40,15.40
2010,06,29,09,41,15.40
2010,06,29,09,42,15.40
2010,06,29,09,43,15.30
2010,06,29,09,44,15.20
2010,06,29,09,45,15.20
2010,06,29,09,46,15.20
2010,06,29,09,47,15.20
2010,06,29,09,48,15.30
2010,06,29,09,49,15.40
2010,06,29,09,50,15.50
2010,06,29,09,51,15.50
2010,06,29,09,52,15.50
2010,06,29,09,53,15.40
2010,06,29,09,54,15.30
2010,06,29,09,55,15.30
2010,06,29,09,56,15.30
2010,06,29,09,57,15.30
2010,06,29,09,58,15.40
2010,06,29,09,59,15.60
2010,06,29,10,00,15.70
2010,06,29,10,01,15.70
2010,06,29,10,02,15.80
2010,06,29,10,03,15.80
2010,06,29,10,04,16.00
2010,06,29,10,05,16.10
2010,06,29,10,06,16.10
2010,06,29,10,07,16.20
2010,06,29,10,08,16.30
2010,06,29,10,09,16.20
2010,06,29,10,10,16.10
2010,06,29,10,11,15.90
2010,06,29,10,12,15.70
2010,06,29,10,13,15.60
2010,06,29,10,14,15.60
2010,06,29,10,15,15.60
2010,06,29,10,16,15.50
2010,06,29,10,17,15.50
2010,06,29,10,18,15.50
2010,06,29,10,19,15.50
2010,06,29,10,20,15.50
2010,06,29,10,21,15.50
2010,06,29,10,22,15.50
2010,06,29,10,23,15.50
2010,06,29,10,24,15.60
2010,06,29,10,25,15.60
2010,06,29,10,26,15.60
2010,06,29,10,27,15.60
2010,06,29,10,28,15.70
2010,06,29,10,29,15.80
2010,06,29,10,30,15.80
2010,06,29,10,31,15.80
2010,06,29,10,32,15.90
2010,06,29,10,33,15.90
2010,06,29,10,34,15.90
2010,06,29,10,35,15.80
2010,06,29,10,36,15.80
2010,06,29,10,37,15.80
2010,06,29,10,38,15.80
2010,06,29,10,39,15.90
2010,06,29,10,40,16.00
2010,06,29,10,41,16.20
2010,06,29,10,42,16.30
2010,06,29,10,43,16.20
2010,06,29,10,44,16.20
2010,06,29,10,45,16.10
2010,06,29,10,46,16.10
2010,06,29,10,47,16.10
2010,06,29,10,48,16.10
2010,06,29,10,49,16.20
2010,06,29,10,50,16.40
2010,06,29,10,51,16.40
2010,06,29,10,52,16.60
2010,06,29,10,53,16.40
2010,06,29,10,54,16.40
2010,06,29,10,55,16.40
2010,06,29,10,56,16.40
2010,06,29,10,57,16.50
2010,06,29,10,58,16.60
2010,06,29,10,59,16.60
2010,06,29,11,00,16.70
2010,06,29,11,01,16.80
2010,06,29,11,02,16.70
2010,06,29,11,03,16.60
2010,06,29,11,04,16.60
2010,06,29,11,05,16.60
2010,06,29,11,06,16.70
2010,06,29,11,07,16.70
2010,06,29,11,08,16.70
2010,06,29,11,09,16.80
2010,06,29,11,10,16.80
2010,06,29,11,11,16.70
2010,06,29,11,12,16.70
2010,06,29,11,13,16.60
2010,06,29,11,14,16.60
2010,06,29,11,15,16.60
2010,06,29,11,16,16.70
2010,06,29,11,17,16.70
2010,06,29,11,18,16.70
2010,06,29,11,19,16.70
2010,06,29,11,20,16.70
2010,06,29,11,21,16.70
2010,06,29,11,22,16.70
2010,06,29,11,23,16.70
2010,06,29,11,24,16.70
2010,06,29,11,25,16.70
2010,06,29,11,26,16.70
2010,06,29,11,27,16.70
2010,06,29,11,28,16.80
2010,06,29,11,29,17.00
2010,06,29,11,30,17.10
2010,06,29,11,31,17.30
2010,06,29,11,32,17.40
2010,06,29,11,33,17.50
2010,06,29,11,34,17.50
2010,06,29,11,35,17.60
2010,06,29,11,36,17.60
2010,06,29,11,37,17.50
2010,06,29,11,38,17.40
2010,06,29,11,39,17.30
2010,06,29,11,40,17.30
2010,06,29,11,41,17.20
2010,06,29,11,42,17.10
2010,06,29,11,43,17.10
2010,06,29,11,44,17.10
2010,06,29,11,45,17.10
2010,06,29,11,46,17.00
2010,06,29,11,47,17.00
2010,06,29,11,48,17.00
2010,06,29,11,49,17.00
2010,06,29,11,50,17.00
2010,06,29,11,51,17.00
2010,06,29,11,52,17.20
2010,06,29,11,53,17.30
2010,06,29,11,54,17.40
2010,06,29,11,55,17.60
2010,06,29,11,56,17.70
2010,06,29,11,57,17.80
2010,06,29,11,58,17.90
2010,06,29,11,59,18.00
2010,06,29,12,00,18.10
2010,06,29,12,01,18.00
2010,06,29,12,02,17.90
2010,06,29,12,03,17.80
2010,06,29,12,04,17.80
2010,06,29,12,05,17.80
2010,06,29,12,06,17.90
2010,06,29,12,07,18.10
2010,06,29,12,08,18.20
2010,06,29,12,09,18.20
2010,06,29,12,10,18.20
2010,06,29,12,11,18.20
2010,06,29,12,12,18.20
2010,06,29,12,13,18.20
2010,06,29,12,14,18.20
2010,06,29,12,15,18.30
2010,06,29,12,16,18.30
2010,06,29,12,17,18.30
2010,06,29,12,18,18.20
2010,06,29,12,19,18.10
2010,06,29,12,20,18.00
2010,06,29,12,21,17.90
2010,06,29,12,22,17.90
2010,06,29,12,23,18.00
2010,06,29,12,24,18.10
2010,06,29,12,25,18.10
2010,06,29,12,26,18.10
2010,06,29,12,27,18.10
2010,06,29,12,28,18.20
2010,06,29,12,29,18.10
2010,06,29,12,30,18.10
2010,06,29,12,31,18.20
2010,06,29,12,32,18.10
2010,06,29,12,33,17.90
2010,06,29,12,34,17.90
2010,06,29,12,35,17.90
2010,06,29,12,36,17.90
2010,06,29,12,37,17.90
2010,06,29,12,38,17.90
2010,06,29,12,39,18.10
2010,06,29,12,40,18.20
2010,06,29,12,41,18.40
2010,06,29,12,42,18.60
2010,06,29,12,43,18.80
2010,06,29,12,44,18.80
2010,06,29,12,45,18.70
2010,06,29,12,46,18.70
2010,06,29,12,47,18.70
2010,06,29,12,48,18.60
2010,06,29,12,49,18.50
2010,06,29,12,50,18.40
2010,06,29,12,51,18.30
2010,06,29,12,52,18.20
2010,06,29,12,53,18.30
2010,06,29,12,54,18.30
2010,06,29,12,55,18.40
2010,06,29,12,56,18.50
2010,06,29,12,57,18.60
2010,06,29,12,58,18.50
2010,06,29,12,59,18.40
2010,06,29,13,00,18.30
2010,06,29,13,01,18.10
2010,06,29,13,02,17.90
2010,06,29,13,03,17.70
2010,06,29,13,04,17.70
2010,06,29,13,05,17.50
2010,06,29,13,06,17.50
2010,06,29,13,07,17.30
2010,06,29,13,08,17.20
2010,06,29,13,09,17.00
2010,06,29,13,10,16.90
2010,06,29,13,11,16.80
2010,06,29,13,12,16.90
2010,06,29,13,13,17.00
2010,06,29,13,14,17.10
2010,06,29,13,15,17.30
2010,06,29,13,16,17.20
2010,06,29,13,17,17.30
2010,06,29,13,18,17.30
2010,06,29,13,19,17.30
2010,06,29,13,20,17.30
2010,06,29,13,21,17.30
2010,06,29,13,22,17.30
2010,06,29,13,23,17.20
2010,06,29,13,24,17.10
2010,06,29,13,25,17.00
2010,06,29,13,26,16.80
2010,06,29,13,27,16.70
2010,06,29,13,28,16.70
2010,06,29,13,29,16.50
2010,06,29,13,30,16.40
2010,06,29,13,31,16.30
2010,06,29,13,32,16.20
2010,06,29,13,33,16.20
2010,06,29,13,34,16.10
2010,06,29,13,35,16.10
2010,06,29,13,36,16.20
2010,06,29,13,37,16.30
2010,06,29,13,38,16.30
2010,06,29,13,39,16.40
2010,06,29,13,40,16.40
2010,06,29,13,41,16.60
2010,06,29,13,42,16.70
2010,06,29,13,43,16.70
2010,06,29,13,44,16.70
2010,06,29,13,45,16.80
2010,06,29,13,46,16.90
2010,06,29,13,47,17.00
2010,06,29,13,48,17.10
2010,06,29,13,49,17.10
2010,06,29,13,50,17.10
2010,06,29,13,51,17.20
2010,06,29,13,52,17.20
2010,06,29,13,53,17.20
2010,06,29,13,54,17.20
2010,06,29,13,55,17.20
2010,06,29,13,56,17.30
2010,06,29,13,57,17.30
2010,06,29,13,58,17.30
2010,06,29,13,59,17.30
2010,06,29,14,00,17.30
2010,06,29,14,01,17.30
2010,06,29,14,02,17.30
2010,06,29,14,03,17.30
2010,06,29,14,04,17.30
2010,06,29,14,05,17.30
2010,06,29,14,06,17.30
2010,06,29,14,07,17.30
2010,06,29,14,08,17.30
2010,06,29,14,09,17.30
2010,06,29,14,10,17.30
2010,06,29,14,11,17.40
2010,06,29,14,12,17.50
2010,06,29,14,13,17.60
2010,06,29,14,14,17.70
2010,06,29,14,15,17.80
2010,06,29,14,16,17.80
2010,06,29,14,17,17.90
2010,06,29,14,18,17.90
2010,06,29,14,19,18.10
2010,06,29,14,20,18.10
2010,06,29,14,21,18.10
2010,06,29,14,22,18.20
2010,06,29,14,23,18.20
2010,06,29,14,24,18.20
2010,06,29,14,25,18.20
2010,06,29,14,26,18.20
2010,06,29,14,27,18.40
2010,06,29,14,28,18.50
2010,06,29,14,29,18.50
2010,06,29,14,30,18.50
2010,06,29,14,31,18.50
2010,06,29,14,32,18.30
2010,06,29,14,33,18.00
2010,06,29,14,34,17.80
2010,06,29,14,35,17.80
2010,06,29,14,36,17.80
2010,06,29,14,37,17.80
2010,06,29,14,38,17.90
2010,06,29,14,39,17.90
2010,06,29,14,40,17.90
2010,06,29,14,41,17.90
2010,06,29,14,42,17.90
2010,06,29,14,43,17.80
2010,06,29,14,44,17.80
2010,06,29,14,45,17.70
2010,06,29,14,46,17.60
2010,06,29,14,47,17.50
2010,06,29,14,48,17.50
2010,06,29,14,49,17.50
2010,06,29,14,50,17.40
2010,06,29,14,51,17.40
2010,06,29,14,52,17.40
2010,06,29,14,53,17.30
2010,06,29,14,54,17.30
2010,06,29,14,55,17.30
2010,06,29,14,56,17.20
2010,06,29,14,57,17.20
2010,06,29,14,58,17.20
2010,06,29,14,59,17.10
2010,06,29,15,00,17.10
2010,06,29,15,01,17.10
2010,06,29,15,02,17.00
2010,06,29,15,03,16.90
2010,06,29,15,04,16.80
2010,06,29,15,05,16.70
2010,06,29,15,06,16.70
2010,06,29,15,07,16.70
2010,06,29,15,08,16.70
2010,06,29,15,09,16.70
2010,06,29,15,10,16.70
2010,06,29,15,11,16.70
2010,06,29,15,12,16.70
2010,06,29,15,13,16.70
2010,06,29,15,14,16.70
2010,06,29,15,15,16.70
2010,06,29,15,16,16.70
2010,06,29,15,17,16.70
2010,06,29,15,18,16.60
2010,06,29,15,19,16.60
2010,06,29,15,20,16.60
2010,06,29,15,21,16.60
2010,06,29,15,22,16.50
2010,06,29,15,23,16.60
2010,06,29,15,24,16.60
2010,06,29,15,25,16.60
2010,06,29,15,26,16.60
2010,06,29,15,27,16.40
2010,06,29,15,28,16.40
2010,06,29,15,29,16.40
2010,06,29,15,30,16.40
2010,06,29,15,31,16.40
2010,06,29,15,32,16.30
2010,06,29,15,33,16.40
2010,06,29,15,34,16.40
2010,06,29,15,35,16.40
2010,06,29,15,36,16.40
2010,06,29,15,37,16.50
2010,06,29,15,38,16.60
2010,06,29,15,39,16.60
2010,06,29,15,40,16.70
2010,06,29,15,41,16.70
2010,06,29,15,42,16.60
2010,06,29,15,43,16.60
2010,06,29,15,44,16.50
2010,06,29,15,45,16.40
2010,06,29,15,46,16.50
2010,06,29,15,47,16.60
2010,06,29,15,48,16.60
2010,06,29,15,49,16.70
2010,06,29,15,50,16.70
2010,06,29,15,51,16.70
2010,06,29,15,52,16.70
2010,06,29,15,53,16.70
2010,06,29,15,54,16.70
2010,06,29,15,55,16.70
2010,06,29,15,56,16.70
2010,06,29,15,57,16.70
2010,06,29,15,58,16.60
2010,06,29,15,59,16.60
2010,06,29,16,00,16.60
2010,06,29,16,01,16.60
2010,06,29,16,02,16.70
2010,06,29,16,03,16.70
2010,06,29,16,04,16.80
2010,06,29,16,05,16.90
2010,06,29,16,06,16.90
2010,06,29,16,07,17.00
2010,06,29,16,08,16.90
2010,06,29,16,09,16.90
2010,06,29,16,10,16.80
2010,06,29,16,11,16.80
2010,06,29,16,12,16.70
2010,06,29,16,13,16.70
2010,06,29,16,14,16.80
2010,06,29,16,15,16.80
2010,06,29,16,16,16.90
2010,06,29,16,17,16.90
2010,06,29,16,18,16.90
2010,06,29,16,19,16.90
2010,06,29,16,20,16.80
2010,06,29,16,21,16.80
2010,06,29,16,22,16.80
2010,06,29,16,23,16.90
2010,06,29,16,24,16.90
2010,06,29,16,25,16.90
2010,06,29,16,26,16.80
2010,06,29,16,27,16.90
2010,06,29,16,28,16.90
2010,06,29,16,29,17.00
2010,06,29,16,30,17.00
2010,06,29,16,31,17.20
2010,06,29,16,32,17.20
2010,06,29,16,33,17.30
2010,06,29,16,34,17.30
2010,06,29,16,35,17.30
2010,06,29,16,36,17.30
2010,06,29,16,37,17.30
2010,06,29,16,38,17.30
2010,06,29,16,39,17.30
2010,06,29,16,40,17.30
2010,06,29,16,41,17.30
2010,06,29,16,42,17.30
2010,06,29,16,43,17.30
2010,06,29,16,44,17.30
2010,06,29,16,45,17.30
2010,06,29,16,46,17.30
2010,06,29,16,47,17.30
2010,06,29,16,48,17.10
2010,06,29,16,49,16.90
2010,06,29,16,50,16.90
2010,06,29,16,51,16.70
2010,06,29,16,52,16.60
2010,06,29,16,53,16.40
2010,06,29,16,54,16.30
2010,06,29,16,55,16.20
2010,06,29,16,56,16.20
2010,06,29,16,57,16.10
2010,06,29,16,58,16.10
2010,06,29,16,59,16.10
2010,06,29,17,00,16.10
2010,06,29,17,01,16.10
2010,06,29,17,02,16.10
2010,06,29,17,03,16.10
2010,06,29,17,04,16.10
2010,06,29,17,05,16.10
2010,06,29,17,06,16.10
2010,06,29,17,07,16.20
2010,06,29,17,08,16.20
2010,06,29,17,09,16.20
2010,06,29,17,10,16.20
2010,06,29,17,11,16.10
2010,06,29,17,12,16.10
2010,06,29,17,13,16.10
2010,06,29,17,14,16.10
2010,06,29,17,15,16.10
2010,06,29,17,16,16.10
2010,06,29,17,17,16.20
2010,06,29,17,18,16.30
2010,06,29,17,19,16.20
2010,06,29,17,20,16.30
2010,06,29,17,21,16.30
2010,06,29,17,22,16.30
2010,06,29,17,23,16.20
2010,06,29,17,24,16.20
2010,06,29,17,25,16.20
2010,06,29,17,26,16.10
2010,06,29,17,27,16.10
2010,06,29,17,28,16.10
2010,06,29,17,29,16.20
2010,06,29,17,30,16.30